Date String (YYYY-MM-DD hh:mm:ss) UTC,Instrument flags,absolute air pressure of the measurement (hPa),sample flow rate (lpm),inlet stack bypass flow (lpm),air temperature of the measurement (°C),ambient temperature measured by the external sensor (°C),aerosol sample conditioner tube jacket temperature (°C),OPC LED temperature (°C),internal box temperature (°C),relative humidity of the measurement (%),span deviation,mass concentration of particles derived from Lorenz-Mie calculation of OPC scattering (μg/m³),mass concentration of particles derived from Lorenz-Mie calculation of OPC scattering (μg/m³),mass concentration of particles derived from Lorenz-Mie calculation of OPC scattering (μg/m³)
DateTimeUTC,F1_M11,P_M11,Q1_M11,Q2_M11,T1_M11,T2_M11,T3_M11,T4_M11,T5_M11,U1_M11,ZSPAN_M11,X0_M11,X2_M11,X1_M11
2024-01-19 02:00:00,SystemResetWarning,0835.1,5.00,000.00,018.9,017.7,000.0,027.4,020.0,9.0,0000.0,0010.37,0003.17,0001.86
2024-01-19 02:01:00,SystemResetWarning,0835.0,5.01,000.00,019.0,018.0,000.0,027.4,020.4,8.9,0000.0,0010.41,0003.13,0001.86
2024-01-19 02:02:00,SystemResetWarning,0835.0,5.00,000.00,019.1,018.7,000.0,027.3,020.8,8.9,0000.0,0010.41,0003.16,0001.87
2024-01-19 02:03:00,SystemResetWarning,0835.1,4.99,000.00,019.1,018.9,000.0,027.3,020.6,8.8,0000.0,0010.15,0003.17,0001.87
2024-01-19 02:04:00,SystemResetWarning,0834.9,4.99,000.00,019.1,018.7,000.0,027.3,020.1,8.8,0000.0,0009.93,0003.13,0001.87
2024-01-19 02:05:00,SystemResetWarning,0835.0,5.00,000.00,019.0,018.5,000.0,027.3,020.0,8.9,0000.0,0010.23,0003.14,0001.85
2024-01-19 02:06:00,SystemResetWarning,0834.9,5.01,000.00,019.0,018.3,000.0,027.4,020.0,8.9,0000.0,0011.22,0003.14,0001.82
2024-01-19 02:07:00,SystemResetWarning,0835.0,5.01,000.00,019.0,018.1,000.0,027.4,020.0,8.9,0000.0,0012.02,0003.19,0001.82
2024-01-19 02:08:00,SystemResetWarning,0835.0,5.00,000.00,018.9,018.0,000.0,027.4,020.0,8.9,0000.0,0011.65,0003.21,0001.83
2024-01-19 02:09:00,SystemResetWarning,0835.2,5.00,000.00,018.9,017.8,000.0,027.4,020.0,8.9,0000.0,0010.91,0003.22,0001.85
2024-01-19 02:10:00,SystemResetWarning,0835.1,4.99,000.00,018.9,017.7,000.0,027.4,020.0,8.9,0000.0,0010.93,0003.21,0001.86
2024-01-19 02:11:00,SystemResetWarning,0835.0,5.00,000.00,018.9,017.7,000.0,027.4,020.1,8.8,0000.0,0010.81,0003.23,0001.90
2024-01-19 02:12:00,SystemResetWarning,0835.3,5.02,000.00,019.0,018.2,000.0,027.3,020.6,8.7,0000.0,0010.55,0003.25,0001.92
2024-01-19 02:13:00,SystemResetWarning,0835.3,4.99,000.00,019.1,018.9,000.0,027.3,020.9,8.7,0000.0,0011.11,0003.32,0001.94
2024-01-19 02:14:00,SystemResetWarning,0835.3,4.98,000.00,019.1,018.9,000.0,027.3,020.4,8.6,0000.0,0011.15,0003.36,0001.96
2024-01-19 02:15:00,SystemResetWarning,0835.1,5.01,000.00,019.0,018.7,000.0,027.3,020.0,8.7,0000.0,0011.48,0003.37,0001.98
2024-01-19 02:16:00,SystemResetWarning,0835.2,5.00,000.00,019.0,018.5,000.0,027.3,020.0,8.7,0000.0,0011.64,0003.37,0002.02
2024-01-19 02:17:00,SystemResetWarning,0835.3,5.00,000.00,019.0,018.3,000.0,027.4,020.0,8.7,0000.0,0010.73,0003.39,0002.04
2024-01-19 02:18:00,SystemResetWarning,0835.1,4.99,000.00,019.0,018.1,000.0,027.4,020.0,8.7,0000.0,0010.96,0003.38,0002.04
2024-01-19 02:19:00,SystemResetWarning,0835.3,5.00,000.00,018.9,018.0,000.0,027.4,020.0,8.7,0000.0,0011.05,0003.38,0002.03
2024-01-19 02:20:00,SystemResetWarning,0835.3,5.00,000.00,018.9,017.9,000.0,027.4,020.0,8.7,0000.0,0010.63,0003.35,0002.02
2024-01-19 02:21:00,SystemResetWarning,0835.2,5.00,000.00,018.9,017.8,000.0,027.4,020.0,8.7,0000.0,0010.74,0003.31,0002.01
2024-01-19 02:22:00,SystemResetWarning,0835.3,5.00,000.00,018.9,017.7,000.0,027.4,020.0,8.7,0000.0,0010.95,0003.29,0001.98
2024-01-19 02:23:00,SystemResetWarning,0835.3,5.01,000.00,018.9,017.7,000.0,027.4,020.2,8.7,0000.0,0010.69,0003.25,0001.96
2024-01-19 02:24:00,SystemResetWarning,0835.3,5.02,000.00,019.0,018.4,000.0,027.3,020.7,8.6,0000.0,0010.05,0003.19,0001.96
2024-01-19 02:25:00,SystemResetWarning,0835.3,4.99,000.00,019.1,018.9,000.0,027.3,020.7,8.5,0000.0,0010.01,0003.17,0001.97
2024-01-19 02:26:00,SystemResetWarning,0835.4,4.99,000.00,019.1,018.8,000.0,027.3,020.2,8.6,0000.0,0010.17,0003.21,0001.98
2024-01-19 02:27:00,SystemResetWarning,0835.3,5.01,000.00,019.0,018.6,000.0,027.3,020.0,8.6,0000.0,0010.62,0003.21,0001.96
2024-01-19 02:28:00,SystemResetWarning,0835.2,5.01,000.00,018.9,018.4,000.0,027.3,020.0,8.6,0000.0,0011.53,0003.20,0001.94
2024-01-19 02:29:00,SystemResetWarning,0835.3,5.00,000.00,018.9,018.2,000.0,027.4,020.0,8.6,0000.0,0010.80,0003.21,0001.94
2024-01-19 02:30:00,SystemResetWarning,0835.5,5.00,000.00,018.9,018.0,000.0,027.4,020.0,8.6,0000.0,0010.68,0003.22,0001.93
2024-01-19 02:31:00,SystemResetWarning,0835.3,4.99,000.00,018.9,017.9,000.0,027.4,020.0,8.6,0000.0,0011.38,0003.21,0001.90
2024-01-19 02:32:00,SystemResetWarning,0835.3,4.99,000.00,018.9,017.8,000.0,027.4,020.0,8.7,0000.0,0011.74,0003.20,0001.89
2024-01-19 02:33:00,SystemResetWarning,0835.5,5.00,000.00,018.9,017.7,000.0,027.4,020.0,8.7,0000.0,0011.46,0003.17,0001.88
2024-01-19 02:34:00,SystemResetWarning,0835.5,5.00,000.00,018.9,017.7,000.0,027.4,020.0,8.7,0000.0,0011.34,0003.17,0001.89
2024-01-19 02:35:00,SystemResetWarning,0835.5,5.01,000.00,018.8,017.6,000.0,027.4,020.0,8.8,0000.0,0011.27,0003.18,0001.88
2024-01-19 02:36:00,SystemResetWarning,0835.5,5.00,000.00,018.8,017.5,000.0,027.4,020.0,8.7,0000.0,0011.53,0003.18,0001.86
2024-01-19 02:37:00,SystemResetWarning,0835.5,5.00,000.00,018.8,017.5,000.0,027.4,020.1,8.8,0000.0,0011.17,0003.14,0001.84
2024-01-19 02:38:00,SystemResetWarning,0835.6,5.00,000.00,018.9,018.0,000.0,027.3,020.4,8.7,0000.0,0011.01,0003.17,0001.83
2024-01-19 02:39:00,SystemResetWarning,0835.5,5.00,000.00,019.0,018.7,000.0,027.3,020.8,8.7,0000.0,0011.12,0003.19,0001.85
2024-01-19 02:40:00,SystemResetWarning,0835.6,5.00,000.00,019.1,018.9,000.0,027.3,020.4,8.6,0000.0,0012.13,0003.18,0001.84
2024-01-19 02:41:00,SystemResetWarning,0835.5,4.98,000.00,019.0,018.7,000.0,027.3,020.1,8.6,0000.0,0012.83,0003.19,0001.86
2024-01-19 02:42:00,SystemResetWarning,0835.6,5.01,000.00,018.9,018.5,000.0,027.3,020.0,8.7,0000.0,0012.72,0003.24,0001.89
2024-01-19 02:43:00,SystemResetWarning,0835.6,5.01,000.00,018.9,018.3,000.0,027.3,020.0,8.7,0000.0,0012.28,0003.27,0001.91
2024-01-19 02:44:00,SystemResetWarning,0835.6,5.00,000.00,018.9,018.1,000.0,027.3,020.0,8.7,0000.0,0012.19,0003.29,0001.90
2024-01-19 02:45:00,SystemResetWarning,0835.5,4.99,000.00,018.9,018.0,000.0,027.3,020.0,8.7,0000.0,0012.70,0003.32,0001.90
2024-01-19 02:46:00,SystemResetWarning,0835.6,4.99,000.00,018.9,017.9,000.0,027.3,020.0,8.6,0000.0,0012.61,0003.30,0001.91
2024-01-19 02:47:00,SystemResetWarning,0835.6,5.00,000.00,018.9,017.8,000.0,027.3,020.0,8.5,0000.0,0012.41,0003.24,0001.89
2024-01-19 02:48:00,SystemResetWarning,0835.7,5.02,000.00,018.9,017.7,000.0,027.3,020.0,8.5,0000.0,0012.12,0003.22,0001.89
2024-01-19 02:49:00,SystemResetWarning,0835.7,5.00,000.00,018.8,017.7,000.0,027.4,020.0,8.5,0000.0,0011.66,0003.14,0001.89
2024-01-19 02:50:00,SystemResetWarning,0835.6,5.00,000.00,018.8,017.6,000.0,027.3,020.0,8.5,0000.0,0011.04,0003.12,0001.89
2024-01-19 02:51:00,SystemResetWarning,0835.6,5.00,000.00,018.8,017.6,000.0,027.3,020.1,8.5,0000.0,0009.87,0003.08,0001.89
2024-01-19 02:52:00,SystemResetWarning,0835.7,5.00,000.00,018.9,018.1,000.0,027.3,020.5,8.4,0000.0,0009.01,0003.05,0001.88
2024-01-19 02:53:00,SystemResetWarning,0835.8,5.00,000.00,019.0,018.9,000.0,027.3,020.8,8.4,0000.0,0008.57,0003.01,0001.86
2024-01-19 02:54:00,SystemResetWarning,0835.8,5.00,000.00,019.1,018.9,000.0,027.3,020.4,8.4,0000.0,0008.14,0003.07,0001.89
2024-01-19 02:55:00,SystemResetWarning,0835.6,4.99,000.00,019.0,018.7,000.0,027.3,020.0,8.4,0000.0,0008.28,0003.10,0001.91
2024-01-19 02:56:00,SystemResetWarning,0835.7,5.00,000.00,018.9,018.4,000.0,027.3,020.0,8.4,0000.0,0007.95,0003.10,0001.92
2024-01-19 02:57:00,SystemResetWarning,0835.9,5.01,000.00,018.9,018.3,000.0,027.3,020.0,8.4,0000.0,0008.19,0003.14,0001.95
2024-01-19 02:58:00,SystemResetWarning,0835.8,5.00,000.00,018.9,018.1,000.0,027.3,020.0,8.5,0000.0,0008.54,0003.17,0001.97
2024-01-19 02:59:00,SystemResetWarning,0835.9,4.99,000.00,018.9,018.0,000.0,027.3,020.0,8.4,0000.0,0008.94,0003.20,0001.99
